Location: Coed Ely
(51.5661°N, 3.4150°W)
Time: 22:59:52
(UTC+00:00)

X-37B - Pass Details

Date: 28 January 2021
Orbit: 383 x 391 km, 45.0° (Epoch: 27 February)

Event Time Altitude Azimuth Distance (km) Brightness Sun altitude
Rises 17:42:40 0° 256° (WSW) 2,271 7.0 -7.4°
Reaches altitude 10° 17:44:57 10° 242° (WSW) 1,417 5.1 -7.8°
Maximum altitude 17:47:37 24° 185° (S) 850 2.6 -8.1°
Drops below altitude 10° 17:50:16 10° 129° (SE) 1,419 3.1 -8.5°
Enters shadow 17:51:36 - 120° (ESE) 1,903 3.7 -8.7°
